Terug naar catalogus

STARLINK-31432

ActiefCommunicatieVLEO
NORAD 59932·PAYLOAD·🇺🇸 United States

Gelanceerd Jun 1, 2024 vanaf Cape Canaveral Space Force Station

Loading…

Volgende Passages (komende 24 uur)

TLE

VersSource: CelesTrak SupGP

Epoch: Sep 14, 2026, 14:21 UTC

1 59932C 24106L   26257.59840278  .00010324  00000+0  37405-3 0  2574
2 59932  43.0018 345.7861 0001362 274.3659  46.6966 15.27561837    11

Volg STARLINK-31432 in realtime met AllMySat

Download on the App Store